Data supplied by UK-AIR on 27/11/2015
All Data GMT hour ending 
Status: R =Ratified P=Provisional,P*=As supplied
,,Bottesford,,,,,,,,,,,,,,,,,,,,,,,
Date,time,"Ozone",status,unit
 
01-01-2012,01:00,56.00000,R,ugm-3
01-01-2012,02:00,56.00000,R,ugm-3
01-01-2012,03:00,56.00000,R,ugm-3
01-01-2012,04:00,54.00000,R,ugm-3
01-01-2012,05:00,56.00000,R,ugm-3
01-01-2012,06:00,58.00000,R,ugm-3
01-01-2012,07:00,58.00000,R,ugm-3
01-01-2012,08:00,58.00000,R,ugm-3
01-01-2012,09:00,60.00000,R,ugm-3
01-01-2012,10:00,64.00000,R,ugm-3
01-01-2012,11:00,64.00000,R,ugm-3
01-01-2012,12:00,64.00000,R,ugm-3
01-01-2012,13:00,64.00000,R,ugm-3
01-01-2012,14:00,64.00000,R,ugm-3
01-01-2012,15:00,62.00000,R,ugm-3
01-01-2012,16:00,62.00000,R,ugm-3
01-01-2012,17:00,70.00000,R,ugm-3
01-01-2012,18:00,60.00000,R,ugm-3
01-01-2012,19:00,56.00000,R,ugm-3
01-01-2012,20:00,60.00000,R,ugm-3
01-01-2012,21:00,58.00000,R,ugm-3
01-01-2012,22:00,58.00000,R,ugm-3
01-01-2012,23:00,56.00000,R,ugm-3
01-01-2012,24:00,58.00000,R,ugm-3
02-01-2012,01:00,54.00000,R,ugm-3
02-01-2012,02:00,54.00000,R,ugm-3
02-01-2012,03:00,54.00000,R,ugm-3
02-01-2012,04:00,52.00000,R,ugm-3
02-01-2012,05:00,54.00000,R,ugm-3
02-01-2012,06:00,54.00000,R,ugm-3
02-01-2012,07:00,58.00000,R,ugm-3
02-01-2012,08:00,60.00000,R,ugm-3
02-01-2012,09:00,56.00000,R,ugm-3
02-01-2012,10:00,60.00000,R,ugm-3
02-01-2012,11:00,62.00000,R,ugm-3
02-01-2012,12:00,62.00000,R,ugm-3
02-01-2012,13:00,64.00000,R,ugm-3
02-01-2012,14:00,66.00000,R,ugm-3
02-01-2012,15:00,64.00000,R,ugm-3
02-01-2012,16:00,62.00000,R,ugm-3
02-01-2012,17:00,62.00000,R,ugm-3
02-01-2012,18:00,54.00000,R,ugm-3
02-01-2012,19:00,52.00000,R,ugm-3
02-01-2012,20:00,52.00000,R,ugm-3
02-01-2012,21:00,54.00000,R,ugm-3
02-01-2012,22:00,58.00000,R,ugm-3
02-01-2012,23:00,62.00000,R,ugm-3
02-01-2012,24:00,58.00000,R,ugm-3
03-01-2012,01:00,62.00000,R,ugm-3
03-01-2012,02:00,60.00000,R,ugm-3
03-01-2012,03:00,64.00000,R,ugm-3
03-01-2012,04:00,70.00000,R,ugm-3
03-01-2012,05:00,70.00000,R,ugm-3
03-01-2012,06:00,68.00000,R,ugm-3
03-01-2012,07:00,68.00000,R,ugm-3
03-01-2012,08:00,66.00000,R,ugm-3
03-01-2012,09:00,64.00000,R,ugm-3
03-01-2012,10:00,68.00000,R,ugm-3
03-01-2012,11:00,70.00000,R,ugm-3
03-01-2012,12:00,68.00000,R,ugm-3
03-01-2012,13:00,66.00000,R,ugm-3
03-01-2012,14:00,70.00000,R,ugm-3
03-01-2012,15:00,72.00000,R,ugm-3
03-01-2012,16:00,64.00000,R,ugm-3
03-01-2012,17:00,66.00000,R,ugm-3
03-01-2012,18:00,68.00000,R,ugm-3
03-01-2012,19:00,68.00000,R,ugm-3
03-01-2012,20:00,68.00000,R,ugm-3
03-01-2012,21:00,70.00000,R,ugm-3
03-01-2012,22:00,70.00000,R,ugm-3
03-01-2012,23:00,66.00000,R,ugm-3
03-01-2012,24:00,68.00000,R,ugm-3
04-01-2012,01:00,68.00000,R,ugm-3
04-01-2012,02:00,70.00000,R,ugm-3
04-01-2012,03:00,70.00000,R,ugm-3
04-01-2012,04:00,70.00000,R,ugm-3
04-01-2012,05:00,70.00000,R,ugm-3
04-01-2012,06:00,68.00000,R,ugm-3
04-01-2012,07:00,66.00000,R,ugm-3
04-01-2012,08:00,60.00000,R,ugm-3
04-01-2012,09:00,50.00000,R,ugm-3
04-01-2012,10:00,46.00000,R,ugm-3
04-01-2012,11:00,50.00000,R,ugm-3
04-01-2012,12:00,54.00000,R,ugm-3
04-01-2012,13:00,62.00000,R,ugm-3
04-01-2012,14:00,64.00000,R,ugm-3
04-01-2012,15:00,64.00000,R,ugm-3
04-01-2012,16:00,54.00000,R,ugm-3
04-01-2012,17:00,62.00000,R,ugm-3
04-01-2012,18:00,66.00000,R,ugm-3
04-01-2012,19:00,68.00000,R,ugm-3
04-01-2012,20:00,68.00000,R,ugm-3
04-01-2012,21:00,68.00000,R,ugm-3
04-01-2012,22:00,68.00000,R,ugm-3
04-01-2012,23:00,68.00000,R,ugm-3
04-01-2012,24:00,66.00000,R,ugm-3
05-01-2012,01:00,66.00000,R,ugm-3
05-01-2012,02:00,64.00000,R,ugm-3
05-01-2012,03:00,66.00000,R,ugm-3
05-01-2012,04:00,78.00000,R,ugm-3
05-01-2012,05:00,76.00000,R,ugm-3
05-01-2012,06:00,76.00000,R,ugm-3
05-01-2012,07:00,66.00000,R,ugm-3
05-01-2012,08:00,56.00000,R,ugm-3
05-01-2012,09:00,52.00000,R,ugm-3
05-01-2012,10:00,52.00000,R,ugm-3
05-01-2012,11:00,56.00000,R,ugm-3
05-01-2012,12:00,64.00000,R,ugm-3
05-01-2012,13:00,66.00000,R,ugm-3
05-01-2012,14:00,66.00000,R,ugm-3
05-01-2012,15:00,62.00000,R,ugm-3
05-01-2012,16:00,58.00000,R,ugm-3
05-01-2012,17:00,60.00000,R,ugm-3
05-01-2012,18:00,58.00000,R,ugm-3
05-01-2012,19:00,56.00000,R,ugm-3
05-01-2012,20:00,58.00000,R,ugm-3
05-01-2012,21:00,56.00000,R,ugm-3
05-01-2012,22:00,58.00000,R,ugm-3
05-01-2012,23:00,58.00000,R,ugm-3
05-01-2012,24:00,60.00000,R,ugm-3
06-01-2012,01:00,60.00000,R,ugm-3
06-01-2012,02:00,56.00000,R,ugm-3
06-01-2012,03:00,54.00000,R,ugm-3
06-01-2012,04:00,50.00000,R,ugm-3
06-01-2012,05:00,46.00000,R,ugm-3
06-01-2012,06:00,42.00000,R,ugm-3
06-01-2012,07:00,38.00000,R,ugm-3
06-01-2012,08:00,32.00000,R,ugm-3
06-01-2012,09:00,28.00000,R,ugm-3
06-01-2012,10:00,26.00000,R,ugm-3
06-01-2012,11:00,26.00000,R,ugm-3
06-01-2012,12:00,38.00000,R,ugm-3
06-01-2012,13:00,42.00000,R,ugm-3
06-01-2012,14:00,38.00000,R,ugm-3
06-01-2012,15:00,36.00000,R,ugm-3
06-01-2012,16:00,34.00000,R,ugm-3
06-01-2012,17:00,34.00000,R,ugm-3
06-01-2012,18:00,32.00000,R,ugm-3
06-01-2012,19:00,32.00000,R,ugm-3
06-01-2012,20:00,36.00000,R,ugm-3
06-01-2012,21:00,38.00000,R,ugm-3
06-01-2012,22:00,40.00000,R,ugm-3
06-01-2012,23:00,44.00000,R,ugm-3
06-01-2012,24:00,50.00000,R,ugm-3
07-01-2012,01:00,50.00000,R,ugm-3
07-01-2012,02:00,46.00000,R,ugm-3
07-01-2012,03:00,58.00000,R,ugm-3
07-01-2012,04:00,72.00000,R,ugm-3
07-01-2012,05:00,72.00000,R,ugm-3
07-01-2012,06:00,70.00000,R,ugm-3
07-01-2012,07:00,68.00000,R,ugm-3
07-01-2012,08:00,64.00000,R,ugm-3
07-01-2012,09:00,62.00000,R,ugm-3
07-01-2012,10:00,58.00000,R,ugm-3
07-01-2012,11:00,58.00000,R,ugm-3
07-01-2012,12:00,56.00000,R,ugm-3
07-01-2012,13:00,56.00000,R,ugm-3
07-01-2012,14:00,58.00000,R,ugm-3
07-01-2012,15:00,56.00000,R,ugm-3
07-01-2012,16:00,56.00000,R,ugm-3
07-01-2012,17:00,56.00000,R,ugm-3
07-01-2012,18:00,56.00000,R,ugm-3
07-01-2012,19:00,58.00000,R,ugm-3
07-01-2012,20:00,60.00000,R,ugm-3
07-01-2012,21:00,58.00000,R,ugm-3
07-01-2012,22:00,56.00000,R,ugm-3
07-01-2012,23:00,56.00000,R,ugm-3
07-01-2012,24:00,56.00000,R,ugm-3
08-01-2012,01:00,60.00000,R,ugm-3
08-01-2012,02:00,60.00000,R,ugm-3
08-01-2012,03:00,62.00000,R,ugm-3
08-01-2012,04:00,62.00000,R,ugm-3
08-01-2012,05:00,62.00000,R,ugm-3
08-01-2012,06:00,62.00000,R,ugm-3
08-01-2012,07:00,62.00000,R,ugm-3
08-01-2012,08:00,60.00000,R,ugm-3
08-01-2012,09:00,58.00000,R,ugm-3
08-01-2012,10:00,54.00000,R,ugm-3
08-01-2012,11:00,52.00000,R,ugm-3
08-01-2012,12:00,48.00000,R,ugm-3
08-01-2012,13:00,48.00000,R,ugm-3
08-01-2012,14:00,48.00000,R,ugm-3
08-01-2012,15:00,48.00000,R,ugm-3
08-01-2012,16:00,44.00000,R,ugm-3
08-01-2012,17:00,36.00000,R,ugm-3
08-01-2012,18:00,32.00000,R,ugm-3
08-01-2012,19:00,32.00000,R,ugm-3
08-01-2012,20:00,34.00000,R,ugm-3
08-01-2012,21:00,32.00000,R,ugm-3
08-01-2012,22:00,32.00000,R,ugm-3
08-01-2012,23:00,30.00000,R,ugm-3
08-01-2012,24:00,36.00000,R,ugm-3
09-01-2012,01:00,34.00000,R,ugm-3
09-01-2012,02:00,40.00000,R,ugm-3
09-01-2012,03:00,52.00000,R,ugm-3
09-01-2012,04:00,52.00000,R,ugm-3
09-01-2012,05:00,50.00000,R,ugm-3
09-01-2012,06:00,52.00000,R,ugm-3
09-01-2012,07:00,50.00000,R,ugm-3
09-01-2012,08:00,46.00000,R,ugm-3
09-01-2012,09:00,44.00000,R,ugm-3
09-01-2012,10:00,38.00000,R,ugm-3
09-01-2012,11:00,40.00000,R,ugm-3
09-01-2012,12:00,46.00000,R,ugm-3
09-01-2012,13:00,52.00000,R,ugm-3
09-01-2012,14:00,46.00000,R,ugm-3
09-01-2012,15:00,44.00000,R,ugm-3
09-01-2012,16:00,40.00000,R,ugm-3
09-01-2012,17:00,34.00000,R,ugm-3
09-01-2012,18:00,46.00000,R,ugm-3
09-01-2012,19:00,40.00000,R,ugm-3
09-01-2012,20:00,30.00000,R,ugm-3
09-01-2012,21:00,24.00000,R,ugm-3
09-01-2012,22:00,16.00000,R,ugm-3
09-01-2012,23:00,16.00000,R,ugm-3
09-01-2012,24:00,26.00000,R,ugm-3
10-01-2012,01:00,34.00000,R,ugm-3
10-01-2012,02:00,20.00000,R,ugm-3
10-01-2012,03:00,14.00000,R,ugm-3
10-01-2012,04:00,18.00000,R,ugm-3
10-01-2012,05:00,36.00000,R,ugm-3
10-01-2012,06:00,42.00000,R,ugm-3
10-01-2012,07:00,40.00000,R,ugm-3
10-01-2012,08:00,36.00000,R,ugm-3
10-01-2012,09:00,38.00000,R,ugm-3
10-01-2012,10:00,42.00000,R,ugm-3
10-01-2012,11:00,40.00000,R,ugm-3
10-01-2012,12:00,46.00000,R,ugm-3
10-01-2012,13:00,56.00000,R,ugm-3
10-01-2012,14:00,52.00000,R,ugm-3
10-01-2012,15:00,50.00000,R,ugm-3
10-01-2012,16:00,36.00000,R,ugm-3
10-01-2012,17:00,36.00000,R,ugm-3
10-01-2012,18:00,40.00000,R,ugm-3
10-01-2012,19:00,48.00000,R,ugm-3
10-01-2012,20:00,50.00000,R,ugm-3
10-01-2012,21:00,52.00000,R,ugm-3
10-01-2012,22:00,46.00000,R,ugm-3
10-01-2012,23:00,50.00000,R,ugm-3
10-01-2012,24:00,56.00000,R,ugm-3
11-01-2012,01:00,54.00000,R,ugm-3
11-01-2012,02:00,54.00000,R,ugm-3
11-01-2012,03:00,56.00000,R,ugm-3
11-01-2012,04:00,56.00000,R,ugm-3
11-01-2012,05:00,52.00000,R,ugm-3
11-01-2012,06:00,50.00000,R,ugm-3
11-01-2012,07:00,48.00000,R,ugm-3
11-01-2012,08:00,44.00000,R,ugm-3
11-01-2012,09:00,40.00000,R,ugm-3
11-01-2012,10:00,38.00000,R,ugm-3
11-01-2012,11:00,38.00000,R,ugm-3
11-01-2012,12:00,,,
11-01-2012,13:00,,,
11-01-2012,14:00,36.00000,R,ugm-3
11-01-2012,15:00,42.00000,R,ugm-3
11-01-2012,16:00,40.00000,R,ugm-3
11-01-2012,17:00,34.00000,R,ugm-3
11-01-2012,18:00,30.00000,R,ugm-3
11-01-2012,19:00,34.00000,R,ugm-3
11-01-2012,20:00,36.00000,R,ugm-3
11-01-2012,21:00,42.00000,R,ugm-3
11-01-2012,22:00,56.00000,R,ugm-3
11-01-2012,23:00,56.00000,R,ugm-3
11-01-2012,24:00,62.00000,R,ugm-3
12-01-2012,01:00,62.00000,R,ugm-3
12-01-2012,02:00,62.00000,R,ugm-3
12-01-2012,03:00,60.00000,R,ugm-3
12-01-2012,04:00,60.00000,R,ugm-3
12-01-2012,05:00,58.00000,R,ugm-3
12-01-2012,06:00,58.00000,R,ugm-3
12-01-2012,07:00,52.00000,R,ugm-3
12-01-2012,08:00,44.00000,R,ugm-3
12-01-2012,09:00,50.00000,R,ugm-3
12-01-2012,10:00,48.00000,R,ugm-3
12-01-2012,11:00,64.00000,R,ugm-3
12-01-2012,12:00,64.00000,R,ugm-3
12-01-2012,13:00,64.00000,R,ugm-3
12-01-2012,14:00,60.00000,R,ugm-3
12-01-2012,15:00,54.00000,R,ugm-3
12-01-2012,16:00,46.00000,R,ugm-3
12-01-2012,17:00,40.00000,R,ugm-3
12-01-2012,18:00,32.00000,R,ugm-3
12-01-2012,19:00,24.00000,R,ugm-3
12-01-2012,20:00,26.00000,R,ugm-3
12-01-2012,21:00,24.00000,R,ugm-3
12-01-2012,22:00,26.00000,R,ugm-3
12-01-2012,23:00,28.00000,R,ugm-3
12-01-2012,24:00,30.00000,R,ugm-3
13-01-2012,01:00,34.00000,R,ugm-3
13-01-2012,02:00,38.00000,R,ugm-3
13-01-2012,03:00,36.00000,R,ugm-3
13-01-2012,04:00,34.00000,R,ugm-3
13-01-2012,05:00,30.00000,R,ugm-3
13-01-2012,06:00,26.00000,R,ugm-3
13-01-2012,07:00,22.00000,R,ugm-3
13-01-2012,08:00,16.00000,R,ugm-3
13-01-2012,09:00,6.00000,R,ugm-3
13-01-2012,10:00,8.00000,R,ugm-3
13-01-2012,11:00,16.00000,R,ugm-3
13-01-2012,12:00,20.00000,R,ugm-3
13-01-2012,13:00,34.00000,R,ugm-3
13-01-2012,14:00,30.00000,R,ugm-3
13-01-2012,15:00,24.00000,R,ugm-3
13-01-2012,16:00,12.00000,R,ugm-3
13-01-2012,17:00,0.00000,R,ugm-3
13-01-2012,18:00,2.00000,R,ugm-3
13-01-2012,19:00,0.00000,R,ugm-3
13-01-2012,20:00,0.00000,R,ugm-3
13-01-2012,21:00,0.00000,R,ugm-3
13-01-2012,22:00,0.00000,R,ugm-3
13-01-2012,23:00,0.00000,R,ugm-3
13-01-2012,24:00,0.00000,R,ugm-3
14-01-2012,01:00,0.00000,R,ugm-3
14-01-2012,02:00,0.00000,R,ugm-3
14-01-2012,03:00,0.00000,R,ugm-3
14-01-2012,04:00,0.00000,R,ugm-3
14-01-2012,05:00,0.00000,R,ugm-3
14-01-2012,06:00,0.00000,R,ugm-3
14-01-2012,07:00,0.00000,R,ugm-3
14-01-2012,08:00,0.00000,R,ugm-3
14-01-2012,09:00,0.00000,R,ugm-3
14-01-2012,10:00,0.00000,R,ugm-3
14-01-2012,11:00,6.00000,R,ugm-3
14-01-2012,12:00,12.00000,R,ugm-3
14-01-2012,13:00,20.00000,R,ugm-3
14-01-2012,14:00,48.00000,R,ugm-3
14-01-2012,15:00,58.00000,R,ugm-3
14-01-2012,16:00,48.00000,R,ugm-3
14-01-2012,17:00,34.00000,R,ugm-3
14-01-2012,18:00,28.00000,R,ugm-3
14-01-2012,19:00,2.00000,R,ugm-3
14-01-2012,20:00,6.00000,R,ugm-3
14-01-2012,21:00,20.00000,R,ugm-3
14-01-2012,22:00,16.00000,R,ugm-3
14-01-2012,23:00,18.00000,R,ugm-3
14-01-2012,24:00,8.00000,R,ugm-3
15-01-2012,01:00,10.00000,R,ugm-3
15-01-2012,02:00,14.00000,R,ugm-3
15-01-2012,03:00,18.00000,R,ugm-3
15-01-2012,04:00,38.00000,R,ugm-3
15-01-2012,05:00,36.00000,R,ugm-3
15-01-2012,06:00,28.00000,R,ugm-3
15-01-2012,07:00,32.00000,R,ugm-3
15-01-2012,08:00,30.00000,R,ugm-3
15-01-2012,09:00,34.00000,R,ugm-3
15-01-2012,10:00,32.00000,R,ugm-3
15-01-2012,11:00,36.00000,R,ugm-3
15-01-2012,12:00,40.00000,R,ugm-3
15-01-2012,13:00,40.00000,R,ugm-3
15-01-2012,14:00,40.00000,R,ugm-3
15-01-2012,15:00,38.00000,R,ugm-3
15-01-2012,16:00,34.00000,R,ugm-3
15-01-2012,17:00,10.00000,R,ugm-3
15-01-2012,18:00,6.00000,R,ugm-3
15-01-2012,19:00,6.00000,R,ugm-3
15-01-2012,20:00,6.00000,R,ugm-3
15-01-2012,21:00,12.00000,R,ugm-3
15-01-2012,22:00,10.00000,R,ugm-3
15-01-2012,23:00,16.00000,R,ugm-3
15-01-2012,24:00,18.00000,R,ugm-3
16-01-2012,01:00,16.00000,R,ugm-3
16-01-2012,02:00,14.00000,R,ugm-3
16-01-2012,03:00,4.00000,R,ugm-3
16-01-2012,04:00,6.00000,R,ugm-3
16-01-2012,05:00,4.00000,R,ugm-3
16-01-2012,06:00,0.00000,R,ugm-3
16-01-2012,07:00,0.00000,R,ugm-3
16-01-2012,08:00,0.00000,R,ugm-3
16-01-2012,09:00,0.00000,R,ugm-3
16-01-2012,10:00,4.00000,R,ugm-3
16-01-2012,11:00,20.00000,R,ugm-3
16-01-2012,12:00,24.00000,R,ugm-3
16-01-2012,13:00,36.00000,R,ugm-3
16-01-2012,14:00,34.00000,R,ugm-3
16-01-2012,15:00,34.00000,R,ugm-3
16-01-2012,16:00,18.00000,R,ugm-3
16-01-2012,17:00,2.00000,R,ugm-3
16-01-2012,18:00,0.00000,R,ugm-3
16-01-2012,19:00,0.00000,R,ugm-3
16-01-2012,20:00,0.00000,R,ugm-3
16-01-2012,21:00,8.00000,R,ugm-3
16-01-2012,22:00,16.00000,R,ugm-3
16-01-2012,23:00,10.00000,R,ugm-3
16-01-2012,24:00,6.00000,R,ugm-3
17-01-2012,01:00,20.00000,R,ugm-3
17-01-2012,02:00,20.00000,R,ugm-3
17-01-2012,03:00,14.00000,R,ugm-3
17-01-2012,04:00,6.00000,R,ugm-3
17-01-2012,05:00,4.00000,R,ugm-3
17-01-2012,06:00,0.00000,R,ugm-3
17-01-2012,07:00,0.00000,R,ugm-3
17-01-2012,08:00,0.00000,R,ugm-3
17-01-2012,09:00,2.00000,R,ugm-3
17-01-2012,10:00,8.00000,R,ugm-3
17-01-2012,11:00,14.00000,R,ugm-3
17-01-2012,12:00,18.00000,R,ugm-3
17-01-2012,13:00,16.00000,R,ugm-3
17-01-2012,14:00,18.00000,R,ugm-3
17-01-2012,15:00,16.00000,R,ugm-3
17-01-2012,16:00,8.00000,R,ugm-3
17-01-2012,17:00,0.00000,R,ugm-3
17-01-2012,18:00,0.00000,R,ugm-3
17-01-2012,19:00,4.00000,R,ugm-3
17-01-2012,20:00,12.00000,R,ugm-3
17-01-2012,21:00,2.00000,R,ugm-3
17-01-2012,22:00,0.00000,R,ugm-3
17-01-2012,23:00,2.00000,R,ugm-3
17-01-2012,24:00,6.00000,R,ugm-3
18-01-2012,01:00,4.00000,R,ugm-3
18-01-2012,02:00,20.00000,R,ugm-3
18-01-2012,03:00,20.00000,R,ugm-3
18-01-2012,04:00,30.00000,R,ugm-3
18-01-2012,05:00,38.00000,R,ugm-3
18-01-2012,06:00,34.00000,R,ugm-3
18-01-2012,07:00,36.00000,R,ugm-3
18-01-2012,08:00,38.00000,R,ugm-3
18-01-2012,09:00,40.00000,R,ugm-3
18-01-2012,10:00,36.00000,R,ugm-3
18-01-2012,11:00,28.00000,R,ugm-3
18-01-2012,12:00,36.00000,R,ugm-3
18-01-2012,13:00,34.00000,R,ugm-3
18-01-2012,14:00,30.00000,R,ugm-3
18-01-2012,15:00,26.00000,R,ugm-3
18-01-2012,16:00,42.00000,R,ugm-3
18-01-2012,17:00,40.00000,R,ugm-3
18-01-2012,18:00,30.00000,R,ugm-3
18-01-2012,19:00,26.00000,R,ugm-3
18-01-2012,20:00,26.00000,R,ugm-3
18-01-2012,21:00,22.00000,R,ugm-3
18-01-2012,22:00,14.00000,R,ugm-3
18-01-2012,23:00,8.00000,R,ugm-3
18-01-2012,24:00,22.00000,R,ugm-3
19-01-2012,01:00,26.00000,R,ugm-3
19-01-2012,02:00,30.00000,R,ugm-3
19-01-2012,03:00,30.00000,R,ugm-3
19-01-2012,04:00,30.00000,R,ugm-3
19-01-2012,05:00,32.00000,R,ugm-3
19-01-2012,06:00,36.00000,R,ugm-3
19-01-2012,07:00,40.00000,R,ugm-3
19-01-2012,08:00,46.00000,R,ugm-3
19-01-2012,09:00,48.00000,R,ugm-3
19-01-2012,10:00,46.00000,R,ugm-3
19-01-2012,11:00,50.00000,R,ugm-3
19-01-2012,12:00,52.00000,R,ugm-3
19-01-2012,13:00,62.00000,R,ugm-3
19-01-2012,14:00,64.00000,R,ugm-3
19-01-2012,15:00,58.00000,R,ugm-3
19-01-2012,16:00,56.00000,R,ugm-3
19-01-2012,17:00,50.00000,R,ugm-3
19-01-2012,18:00,46.00000,R,ugm-3
19-01-2012,19:00,62.00000,R,ugm-3
19-01-2012,20:00,58.00000,R,ugm-3
19-01-2012,21:00,60.00000,R,ugm-3
19-01-2012,22:00,64.00000,R,ugm-3
19-01-2012,23:00,64.00000,R,ugm-3
19-01-2012,24:00,60.00000,R,ugm-3
20-01-2012,01:00,56.00000,R,ugm-3
20-01-2012,02:00,60.00000,R,ugm-3
20-01-2012,03:00,62.00000,R,ugm-3
20-01-2012,04:00,60.00000,R,ugm-3
20-01-2012,05:00,58.00000,R,ugm-3
20-01-2012,06:00,60.00000,R,ugm-3
20-01-2012,07:00,54.00000,R,ugm-3
20-01-2012,08:00,54.00000,R,ugm-3
20-01-2012,09:00,46.00000,R,ugm-3
20-01-2012,10:00,36.00000,R,ugm-3
20-01-2012,11:00,32.00000,R,ugm-3
20-01-2012,12:00,30.00000,R,ugm-3
20-01-2012,13:00,26.00000,R,ugm-3
20-01-2012,14:00,20.00000,R,ugm-3
20-01-2012,15:00,36.00000,R,ugm-3
20-01-2012,16:00,42.00000,R,ugm-3
20-01-2012,17:00,40.00000,R,ugm-3
20-01-2012,18:00,44.00000,R,ugm-3
20-01-2012,19:00,36.00000,R,ugm-3
20-01-2012,20:00,42.00000,R,ugm-3
20-01-2012,21:00,40.00000,R,ugm-3
20-01-2012,22:00,46.00000,R,ugm-3
20-01-2012,23:00,50.00000,R,ugm-3
20-01-2012,24:00,50.00000,R,ugm-3
21-01-2012,01:00,46.00000,R,ugm-3
21-01-2012,02:00,52.00000,R,ugm-3
21-01-2012,03:00,52.00000,R,ugm-3
21-01-2012,04:00,54.00000,R,ugm-3
21-01-2012,05:00,50.00000,R,ugm-3
21-01-2012,06:00,48.00000,R,ugm-3
21-01-2012,07:00,58.00000,R,ugm-3
21-01-2012,08:00,60.00000,R,ugm-3
21-01-2012,09:00,64.00000,R,ugm-3
21-01-2012,10:00,68.00000,R,ugm-3
21-01-2012,11:00,70.00000,R,ugm-3
21-01-2012,12:00,74.00000,R,ugm-3
21-01-2012,13:00,74.00000,R,ugm-3
21-01-2012,14:00,70.00000,R,ugm-3
21-01-2012,15:00,66.00000,R,ugm-3
21-01-2012,16:00,66.00000,R,ugm-3
21-01-2012,17:00,66.00000,R,ugm-3
21-01-2012,18:00,66.00000,R,ugm-3
21-01-2012,19:00,64.00000,R,ugm-3
21-01-2012,20:00,64.00000,R,ugm-3
21-01-2012,21:00,64.00000,R,ugm-3
21-01-2012,22:00,62.00000,R,ugm-3
21-01-2012,23:00,62.00000,R,ugm-3
21-01-2012,24:00,64.00000,R,ugm-3
22-01-2012,01:00,64.00000,R,ugm-3
22-01-2012,02:00,64.00000,R,ugm-3
22-01-2012,03:00,66.00000,R,ugm-3
22-01-2012,04:00,62.00000,R,ugm-3
22-01-2012,05:00,58.00000,R,ugm-3
22-01-2012,06:00,64.00000,R,ugm-3
22-01-2012,07:00,64.00000,R,ugm-3
22-01-2012,08:00,62.00000,R,ugm-3
22-01-2012,09:00,60.00000,R,ugm-3
22-01-2012,10:00,74.00000,R,ugm-3
22-01-2012,11:00,74.00000,R,ugm-3
22-01-2012,12:00,70.00000,R,ugm-3
22-01-2012,13:00,68.00000,R,ugm-3
22-01-2012,14:00,68.00000,R,ugm-3
22-01-2012,15:00,68.00000,R,ugm-3
22-01-2012,16:00,68.00000,R,ugm-3
22-01-2012,17:00,66.00000,R,ugm-3
22-01-2012,18:00,64.00000,R,ugm-3
22-01-2012,19:00,62.00000,R,ugm-3
22-01-2012,20:00,58.00000,R,ugm-3
22-01-2012,21:00,54.00000,R,ugm-3
22-01-2012,22:00,52.00000,R,ugm-3
22-01-2012,23:00,48.00000,R,ugm-3
22-01-2012,24:00,56.00000,R,ugm-3
23-01-2012,01:00,56.00000,R,ugm-3
23-01-2012,02:00,54.00000,R,ugm-3
23-01-2012,03:00,50.00000,R,ugm-3
23-01-2012,04:00,54.00000,R,ugm-3
23-01-2012,05:00,54.00000,R,ugm-3
23-01-2012,06:00,54.00000,R,ugm-3
23-01-2012,07:00,50.00000,R,ugm-3
23-01-2012,08:00,38.00000,R,ugm-3
23-01-2012,09:00,32.00000,R,ugm-3
23-01-2012,10:00,34.00000,R,ugm-3
23-01-2012,11:00,42.00000,R,ugm-3
23-01-2012,12:00,44.00000,R,ugm-3
23-01-2012,13:00,56.00000,R,ugm-3
23-01-2012,14:00,60.00000,R,ugm-3
23-01-2012,15:00,58.00000,R,ugm-3
23-01-2012,16:00,54.00000,R,ugm-3
23-01-2012,17:00,44.00000,R,ugm-3
23-01-2012,18:00,40.00000,R,ugm-3
23-01-2012,19:00,38.00000,R,ugm-3
23-01-2012,20:00,34.00000,R,ugm-3
23-01-2012,21:00,32.00000,R,ugm-3
23-01-2012,22:00,28.00000,R,ugm-3
23-01-2012,23:00,30.00000,R,ugm-3
23-01-2012,24:00,26.00000,R,ugm-3
24-01-2012,01:00,26.00000,R,ugm-3
24-01-2012,02:00,30.00000,R,ugm-3
24-01-2012,03:00,34.00000,R,ugm-3
24-01-2012,04:00,40.00000,R,ugm-3
24-01-2012,05:00,40.00000,R,ugm-3
24-01-2012,06:00,28.00000,R,ugm-3
24-01-2012,07:00,24.00000,R,ugm-3
24-01-2012,08:00,40.00000,R,ugm-3
24-01-2012,09:00,58.00000,R,ugm-3
24-01-2012,10:00,58.00000,R,ugm-3
24-01-2012,11:00,40.00000,R,ugm-3
24-01-2012,12:00,32.00000,R,ugm-3
24-01-2012,13:00,28.00000,R,ugm-3
24-01-2012,14:00,24.00000,R,ugm-3
24-01-2012,15:00,20.00000,R,ugm-3
24-01-2012,16:00,10.00000,R,ugm-3
24-01-2012,17:00,2.00000,R,ugm-3
24-01-2012,18:00,0.00000,R,ugm-3
24-01-2012,19:00,2.00000,R,ugm-3
24-01-2012,20:00,4.00000,R,ugm-3
24-01-2012,21:00,6.00000,R,ugm-3
24-01-2012,22:00,12.00000,R,ugm-3
24-01-2012,23:00,16.00000,R,ugm-3
24-01-2012,24:00,14.00000,R,ugm-3
25-01-2012,01:00,10.00000,R,ugm-3
25-01-2012,02:00,2.00000,R,ugm-3
25-01-2012,03:00,18.00000,R,ugm-3
25-01-2012,04:00,24.00000,R,ugm-3
25-01-2012,05:00,28.00000,R,ugm-3
25-01-2012,06:00,36.00000,R,ugm-3
25-01-2012,07:00,40.00000,R,ugm-3
25-01-2012,08:00,42.00000,R,ugm-3
25-01-2012,09:00,42.00000,R,ugm-3
25-01-2012,10:00,44.00000,R,ugm-3
25-01-2012,11:00,50.00000,R,ugm-3
25-01-2012,12:00,52.00000,R,ugm-3
25-01-2012,13:00,56.00000,R,ugm-3
25-01-2012,14:00,54.00000,R,ugm-3
25-01-2012,15:00,58.00000,R,ugm-3
25-01-2012,16:00,58.00000,R,ugm-3
25-01-2012,17:00,54.00000,R,ugm-3
25-01-2012,18:00,54.00000,R,ugm-3
25-01-2012,19:00,58.00000,R,ugm-3
25-01-2012,20:00,60.00000,R,ugm-3
25-01-2012,21:00,62.00000,R,ugm-3
25-01-2012,22:00,58.00000,R,ugm-3
25-01-2012,23:00,56.00000,R,ugm-3
25-01-2012,24:00,56.00000,R,ugm-3
26-01-2012,01:00,54.00000,R,ugm-3
26-01-2012,02:00,54.00000,R,ugm-3
26-01-2012,03:00,54.00000,R,ugm-3
26-01-2012,04:00,76.00000,R,ugm-3
26-01-2012,05:00,74.00000,R,ugm-3
26-01-2012,06:00,72.00000,R,ugm-3
26-01-2012,07:00,72.00000,R,ugm-3
26-01-2012,08:00,62.00000,R,ugm-3
26-01-2012,09:00,58.00000,R,ugm-3
26-01-2012,10:00,58.00000,R,ugm-3
26-01-2012,11:00,58.00000,R,ugm-3
26-01-2012,12:00,60.00000,R,ugm-3
26-01-2012,13:00,58.00000,R,ugm-3
26-01-2012,14:00,64.00000,R,ugm-3
26-01-2012,15:00,60.00000,R,ugm-3
26-01-2012,16:00,58.00000,R,ugm-3
26-01-2012,17:00,60.00000,R,ugm-3
26-01-2012,18:00,48.00000,R,ugm-3
26-01-2012,19:00,50.00000,R,ugm-3
26-01-2012,20:00,50.00000,R,ugm-3
26-01-2012,21:00,52.00000,R,ugm-3
26-01-2012,22:00,54.00000,R,ugm-3
26-01-2012,23:00,46.00000,R,ugm-3
26-01-2012,24:00,48.00000,R,ugm-3
27-01-2012,01:00,50.00000,R,ugm-3
27-01-2012,02:00,52.00000,R,ugm-3
27-01-2012,03:00,52.00000,R,ugm-3
27-01-2012,04:00,50.00000,R,ugm-3
27-01-2012,05:00,46.00000,R,ugm-3
27-01-2012,06:00,46.00000,R,ugm-3
27-01-2012,07:00,46.00000,R,ugm-3
27-01-2012,08:00,40.00000,R,ugm-3
27-01-2012,09:00,34.00000,R,ugm-3
27-01-2012,10:00,36.00000,R,ugm-3
27-01-2012,11:00,38.00000,R,ugm-3
27-01-2012,12:00,38.00000,R,ugm-3
27-01-2012,13:00,46.00000,R,ugm-3
27-01-2012,14:00,52.00000,R,ugm-3
27-01-2012,15:00,46.00000,R,ugm-3
27-01-2012,16:00,58.00000,R,ugm-3
27-01-2012,17:00,66.00000,R,ugm-3
27-01-2012,18:00,50.00000,R,ugm-3
27-01-2012,19:00,54.00000,R,ugm-3
27-01-2012,20:00,52.00000,R,ugm-3
27-01-2012,21:00,42.00000,R,ugm-3
27-01-2012,22:00,40.00000,R,ugm-3
27-01-2012,23:00,32.00000,R,ugm-3
27-01-2012,24:00,16.00000,R,ugm-3
28-01-2012,01:00,32.00000,R,ugm-3
28-01-2012,02:00,24.00000,R,ugm-3
28-01-2012,03:00,8.00000,R,ugm-3
28-01-2012,04:00,6.00000,R,ugm-3
28-01-2012,05:00,18.00000,R,ugm-3
28-01-2012,06:00,22.00000,R,ugm-3
28-01-2012,07:00,24.00000,R,ugm-3
28-01-2012,08:00,16.00000,R,ugm-3
28-01-2012,09:00,14.00000,R,ugm-3
28-01-2012,10:00,24.00000,R,ugm-3
28-01-2012,11:00,32.00000,R,ugm-3
28-01-2012,12:00,34.00000,R,ugm-3
28-01-2012,13:00,28.00000,R,ugm-3
28-01-2012,14:00,34.00000,R,ugm-3
28-01-2012,15:00,42.00000,R,ugm-3
28-01-2012,16:00,38.00000,R,ugm-3
28-01-2012,17:00,18.00000,R,ugm-3
28-01-2012,18:00,10.00000,R,ugm-3
28-01-2012,19:00,8.00000,R,ugm-3
28-01-2012,20:00,8.00000,R,ugm-3
28-01-2012,21:00,6.00000,R,ugm-3
28-01-2012,22:00,4.00000,R,ugm-3
28-01-2012,23:00,4.00000,R,ugm-3
28-01-2012,24:00,4.00000,R,ugm-3
29-01-2012,01:00,2.00000,R,ugm-3
29-01-2012,02:00,0.00000,R,ugm-3
29-01-2012,03:00,4.00000,R,ugm-3
29-01-2012,04:00,2.00000,R,ugm-3
29-01-2012,05:00,4.00000,R,ugm-3
29-01-2012,06:00,0.00000,R,ugm-3
29-01-2012,07:00,0.00000,R,ugm-3
29-01-2012,08:00,0.00000,R,ugm-3
29-01-2012,09:00,0.00000,R,ugm-3
29-01-2012,10:00,4.00000,R,ugm-3
29-01-2012,11:00,6.00000,R,ugm-3
29-01-2012,12:00,8.00000,R,ugm-3
29-01-2012,13:00,10.00000,R,ugm-3
29-01-2012,14:00,12.00000,R,ugm-3
29-01-2012,15:00,8.00000,R,ugm-3
29-01-2012,16:00,4.00000,R,ugm-3
29-01-2012,17:00,16.00000,R,ugm-3
29-01-2012,18:00,30.00000,R,ugm-3
29-01-2012,19:00,32.00000,R,ugm-3
29-01-2012,20:00,32.00000,R,ugm-3
29-01-2012,21:00,34.00000,R,ugm-3
29-01-2012,22:00,38.00000,R,ugm-3
29-01-2012,23:00,30.00000,R,ugm-3
29-01-2012,24:00,24.00000,R,ugm-3
30-01-2012,01:00,18.00000,R,ugm-3
30-01-2012,02:00,26.00000,R,ugm-3
30-01-2012,03:00,28.00000,R,ugm-3
30-01-2012,04:00,24.00000,R,ugm-3
30-01-2012,05:00,26.00000,R,ugm-3
30-01-2012,06:00,18.00000,R,ugm-3
30-01-2012,07:00,8.00000,R,ugm-3